Simultaneous Nadir Overpasses (SNOs) Predictions

Prediction of SNOs between TERRA and METOP-C Satellite Orbit:

Table of predicted SNOs for the next 14.0 days since TLE Epoch: 10/22/2022
Index Date (TERRA) Time (TERRA) Lat,Lon (TERRA) SZA (TERRA ) Date (METOP-C) Time (METOP-C) Lat,Lon (METOP-C) SZA (METOP-C ) Distance(km) Time Diff (sec)
1 10/22/2022 11:23:19 -81.00,-133.55 85.73 10/22/2022 11:22:16 -81.01,-133.46 85.74 1.67 63
2 10/22/2022 12:12:40 81.05, 34.69 94.38 10/22/2022 12:12:53 81.05, 34.83 94.40 2.43 13
3 10/25/2022 03:35:07 -81.00, -16.53 84.80 10/25/2022 03:33:58 -81.00, -16.60 84.84 1.22 69
4 10/25/2022 04:24:28 81.04, 151.65 95.30 10/25/2022 04:24:35 81.03, 151.64 95.30 0.61 7
5 10/27/2022 19:47:41 -79.47, 86.43 86.46 10/27/2022 19:46:28 -79.86, 84.43 86.29 58.19 73
6 10/27/2022 20:36:16 81.03, -91.51 96.18 10/27/2022 20:36:17 81.02, -91.58 96.17 1.38 1
7 10/30/2022 12:48:03 81.03, 25.57 97.07 10/30/2022 12:47:58 81.02, 25.52 97.06 1.01 5
8 10/30/2022 13:37:26 -81.05,-166.55 82.88 10/30/2022 13:38:39 -81.04,-166.66 82.86 1.85 73
9 11/02/2022 04:59:49 81.02, 142.53 97.92 11/02/2022 04:59:38 81.02, 142.60 97.92 1.18 11
10 11/02/2022 05:49:12 -81.04, -49.54 82.03 11/02/2022 05:50:19 -81.04, -49.56 82.01 0.35 67
11 11/04/2022 21:11:36 81.01,-100.63 98.71 11/04/2022 21:11:20 81.01,-100.74 98.69 1.91 16



Historial Predications of SNOs between TERRA and METOP-C
